Hourly Weather Barpeta

Today, 23 September, Wednesday

Time Temperature Precipitation Wind Pressure Humidity
00:00 +27°C° 0 mm 2 mps 752 mmHg 99%
01:00 +27°C° 1 mm 2 mps 751 mmHg 98%
02:00 +27°C° 1 mm 2 mps 751 mmHg 98%
03:00 +27°C° 1 mm 2 mps 751 mmHg 97%
04:00 +27°C° 0.9 mm 1 mps 751 mmHg 97%
05:00 +27°C° 0.9 mm 1 mps 751 mmHg 97%
06:00 +27°C° 0 mm 2 mps 752 mmHg 98%
07:00 +27°C° 1.3 mm 2 mps 752 mmHg 95%
08:00 +28°C° 1.3 mm 2 mps 753 mmHg 93%
09:00 +28°C° 1.3 mm 2 mps 753 mmHg 91%
10:00 +29°C° 0.5 mm 2 mps 753 mmHg 89%
11:00 +29°C° 0.5 mm 2 mps 753 mmHg 88%
12:00 +29°C° 0.5 mm 1 mps 752 mmHg 86%
13:00 +29°C° 0.2 mm 2 mps 752 mmHg 87%
14:00 +29°C° 0.2 mm 2 mps 751 mmHg 88%
15:00 +28°C° 0.2 mm 2 mps 751 mmHg 89%
16:00 +28°C° 0.5 mm 2 mps 751 mmHg 90%
17:00 +28°C° 0.5 mm 2 mps 751 mmHg 91%
18:00 +27°C° 0.5 mm 2 mps 751 mmHg 92%
19:00 +27°C° 0.9 mm 2 mps 752 mmHg 92%
20:00 +27°C° 0.9 mm 2 mps 752 mmHg 93%
21:00 +27°C° 0.9 mm 1 mps 753 mmHg 94%
22:00 +27°C° 1.2 mm 1 mps 753 mmHg 95%
23:00 +27°C° 1.2 mm 1 mps 753 mmHg 95%

Tomorrow, 24 September, Thursday

Time Temperature Precipitation Wind Pressure Humidity
00:00 +27°C° 1.2 mm 1 mps 753 mmHg 96%
01:00 +26°C° 1 mm 1 mps 752 mmHg 96%
02:00 +26°C° 1 mm 1 mps 752 mmHg 96%
03:00 +26°C° 1 mm 1 mps 752 mmHg 96%
04:00 +26°C° 0.5 mm 1 mps 752 mmHg 96%
05:00 +26°C° 0.5 mm 1 mps 752 mmHg 95%
06:00 +24°C° 0.5 mm 0 mps 752 mmHg 95%
07:00 +25°C° 0.4 mm 0 mps 752 mmHg 92%
08:00 +26°C° 0.4 mm 0 mps 753 mmHg 89%
09:00 +27°C° 0.4 mm 0 mps 753 mmHg 87%
10:00 +28°C° 5.1 mm 1 mps 753 mmHg 89%
11:00 +28°C° 5.1 mm 1 mps 753 mmHg 92%
12:00 +27°C° 5.1 mm 2 mps 753 mmHg 95%
13:00 +27°C° 3 mm 2 mps 753 mmHg 95%
14:00 +27°C° 3 mm 1 mps 752 mmHg 95%
15:00 +27°C° 3 mm 1 mps 752 mmHg 95%
16:00 +27°C° 0.4 mm 1 mps 752 mmHg 94%
17:00 +27°C° 0.4 mm 1 mps 752 mmHg 94%
18:00 +27°C° 0.4 mm 1 mps 752 mmHg 94%
19:00 +27°C° 0.7 mm 1 mps 752 mmHg 94%
20:00 +27°C° 0.7 mm 1 mps 753 mmHg 94%
21:00 +27°C° 0.7 mm 1 mps 753 mmHg 94%
22:00 +27°C° 0.6 mm 1 mps 753 mmHg 95%
23:00 +27°C° 0.6 mm 1 mps 753 mmHg 95%

Day after tomorrow, 25 September, Friday

Time Temperature Precipitation Wind Pressure Humidity
00:00 +26°C° 0.6 mm 1 mps 752 mmHg 96%
01:00 +26°C° 0.5 mm 1 mps 752 mmHg 96%
02:00 +26°C° 0.5 mm 1 mps 751 mmHg 96%
03:00 +26°C° 0.5 mm 1 mps 751 mmHg 97%
04:00 +26°C° 0.6 mm 1 mps 751 mmHg 97%
05:00 +26°C° 0.6 mm 2 mps 750 mmHg 97%
06:00 +26°C° 0.6 mm 2 mps 750 mmHg 97%
07:00 +26°C° 0.6 mm 2 mps 751 mmHg 96%
08:00 +26°C° 0.6 mm 2 mps 751 mmHg 95%
09:00 +27°C° 0.6 mm 2 mps 752 mmHg 95%
10:00 +27°C° 2.9 mm 1 mps 752 mmHg 95%
11:00 +26°C° 2.9 mm 1 mps 752 mmHg 96%
12:00 +26°C° 2.9 mm 1 mps 751 mmHg 97%
13:00 +26°C° 5.6 mm 1 mps 751 mmHg 97%
14:00 +27°C° 5.6 mm 2 mps 750 mmHg 96%
15:00 +27°C° 5.6 mm 2 mps 750 mmHg 95%
16:00 +27°C° 1.1 mm 2 mps 750 mmHg 96%
17:00 +26°C° 1.1 mm 2 mps 750 mmHg 97%
18:00 +26°C° 1.1 mm 2 mps 750 mmHg 97%
19:00 +26°C° 3.2 mm 2 mps 750 mmHg 97%
20:00 +26°C° 3.2 mm 3 mps 751 mmHg 98%
21:00 +26°C° 3.2 mm 3 mps 751 mmHg 98%
22:00 +26°C° 4.8 mm 3 mps 751 mmHg 98%
23:00 +26°C° 4.8 mm 3 mps 751 mmHg 98%

26 September, Saturday

Time Temperature Precipitation Wind Pressure Humidity
00:00 +26°C° 4.8 mm 3 mps 751 mmHg 98%
01:00 +26°C° 2.9 mm 2 mps 750 mmHg 98%
02:00 +26°C° 2.9 mm 2 mps 750 mmHg 98%
03:00 +26°C° 2.9 mm 1 mps 749 mmHg 98%
04:00 +26°C° 3.9 mm 2 mps 749 mmHg 98%
05:00 +26°C° 3.9 mm 2 mps 749 mmHg 98%
06:00 +26°C° 3.9 mm 2 mps 750 mmHg 98%
07:00 +26°C° 6.1 mm 3 mps 750 mmHg 98%
08:00 +26°C° 6.1 mm 3 mps 750 mmHg 98%
09:00 +26°C° 6.1 mm 3 mps 751 mmHg 97%
10:00 +26°C° 2.6 mm 3 mps 751 mmHg 97%
11:00 +26°C° 2.6 mm 3 mps 751 mmHg 97%
12:00 +26°C° 2.6 mm 3 mps 751 mmHg 97%
13:00 +26°C° 2.7 mm 3 mps 750 mmHg 97%
14:00 +26°C° 2.7 mm 4 mps 750 mmHg 96%
15:00 +26°C° 2.7 mm 4 mps 750 mmHg 96%
16:00 +26°C° 1.8 mm 4 mps 750 mmHg 96%
17:00 +26°C° 1.8 mm 4 mps 750 mmHg 96%
18:00 +25°C° 1.8 mm 3 mps 750 mmHg 97%
19:00 +25°C° 1.1 mm 3 mps 751 mmHg 97%
20:00 +25°C° 1.1 mm 3 mps 751 mmHg 97%
21:00 +26°C° 1.1 mm 3 mps 752 mmHg 97%
22:00 +26°C° 1.2 mm 3 mps 752 mmHg 97%
23:00 +26°C° 1.2 mm 3 mps 751 mmHg 97%

27 September, Sunday

Time Temperature Precipitation Wind Pressure Humidity
00:00 +26°C° 1.2 mm 3 mps 751 mmHg 98%
01:00 +26°C° 0.3 mm 2 mps 751 mmHg 97%
02:00 +25°C° 0.3 mm 2 mps 750 mmHg 97%
03:00 +25°C° 0.3 mm 2 mps 750 mmHg 97%
04:00 +25°C° 0 mm 2 mps 750 mmHg 97%
05:00 +25°C° 0 mm 2 mps 750 mmHg 97%
06:00 +25°C° 0 mm 2 mps 750 mmHg 97%
07:00 +26°C° 0.2 mm 2 mps 751 mmHg 96%
08:00 +26°C° 0.2 mm 3 mps 752 mmHg 94%
09:00 +27°C° 0.2 mm 3 mps 752 mmHg 93%
10:00 +27°C° 3.5 mm 2 mps 752 mmHg 94%
11:00 +27°C° 3.5 mm 2 mps 752 mmHg 95%
12:00 +26°C° 3.5 mm 1 mps 752 mmHg 96%
13:00 +27°C° 0.5 mm 2 mps 751 mmHg 94%
14:00 +27°C° 0.5 mm 2 mps 751 mmHg 92%
15:00 +28°C° 0.5 mm 3 mps 751 mmHg 90%
16:00 +27°C° 0 mm 2 mps 751 mmHg 91%
17:00 +27°C° 0 mm 2 mps 751 mmHg 92%
18:00 +27°C° 0 mm 2 mps 751 mmHg 93%
19:00 +26°C° 0 mm 2 mps 751 mmHg 94%
20:00 +26°C° 0 mm 2 mps 752 mmHg 95%
21:00 +26°C° 0 mm 2 mps 752 mmHg 95%
22:00 +26°C° 0.2 mm 2 mps 752 mmHg 95%
23:00 +26°C° 0.2 mm 1 mps 752 mmHg 95%

28 September, Monday

Time Temperature Precipitation Wind Pressure Humidity
00:00 +26°C° 0.2 mm 1 mps 752 mmHg 95%
01:00 +26°C° 0.4 mm 1 mps 752 mmHg 95%
02:00 +26°C° 0.4 mm 1 mps 751 mmHg 95%
03:00 +25°C° 0.4 mm 1 mps 751 mmHg 95%
04:00 +25°C° 0.1 mm 1 mps 751 mmHg 95%
05:00 +25°C° 0.1 mm 2 mps 752 mmHg 95%
06:00 +25°C° 0.1 mm 2 mps 752 mmHg 96%
07:00 +26°C° 0 mm 2 mps 752 mmHg 93%
08:00 +27°C° 0 mm 3 mps 752 mmHg 91%
09:00 +28°C° 0 mm 3 mps 753 mmHg 89%
10:00 +29°C° 0 mm 3 mps 752 mmHg 84%
11:00 +31°C° 0 mm 3 mps 752 mmHg 79%
12:00 +32°C° 0 mm 2 mps 751 mmHg 73%
13:00 +32°C° 0.1 mm 2 mps 751 mmHg 71%
14:00 +33°C° 0.1 mm 1 mps 750 mmHg 69%
15:00 +33°C° 0.1 mm 1 mps 749 mmHg 67%
16:00 +32°C° 0.3 mm 1 mps 749 mmHg 71%
17:00 +29°C° 0.3 mm 0 mps 749 mmHg 74%
18:00 +28°C° 0.3 mm 0 mps 750 mmHg 78%
19:00 +28°C° 1.6 mm 0 mps 750 mmHg 81%
20:00 +29°C° 1.6 mm 1 mps 751 mmHg 84%
21:00 +28°C° 1.6 mm 1 mps 752 mmHg 88%
22:00 +28°C° 1.1 mm 1 mps 752 mmHg 89%
23:00 +26°C° 1.1 mm 0 mps 752 mmHg 90%
Show more